GFSMA_925_thetae_021.txt.gz
Theta_e
329 329 328 327 326 325 326 327 326 326 327 329 330 329 330 330 330 330 325 325 329 328 327 337 340 341 340 340 339 337 334 332 330 329 329 330 331 333 336 335 335 333 331
328 328 328 327 327 327 326 326 325 326 327 329 329 330 330 330 330 327 322 327 328 327 328 334 339 340 340 340 334 332 334 330 330 329 329 329 329 335 334 334 330 328 323
328 328 329 329 328 326 323 325 325 326 327 328 329 329 329 329 327 325 325 329 331 327 332 333 339 341 341 339 335 335 333 329 331 329 327 330 333 334 333 330 327 326 323
328 328 329 329 328 326 325 325 326 326 327 327 329 329 328 328 327 326 328 329 331 333 335 335 337 341 340 338 336 335 333 332 329 327 329 331 332 330 327 327 327 325 324
329 328 329 328 326 326 325 326 326 325 327 328 329 328 327 328 327 328 329 331 334 335 337 335 337 339 340 338 336 335 332 330 327 328 331 331 327 324 326 327 325 325 324
329 329 327 326 325 326 325 326 326 326 326 327 327 327 328 328 328 327 330 331 332 335 335 337 337 330 336 337 336 334 331 330 328 331 330 326 319 325 326 325 324 324 319
330 328 327 325 324 324 325 326 326 326 327 327 327 326 329 329 329 329 328 333 331 334 335 337 335 326 331 338 334 333 332 329 328 329 327 325 326 322 322 324 324 319 318
329 328 326 323 321 324 326 326 326 326 327 327 327 327 329 329 330 331 331 333 332 334 335 336 335 334 330 336 333 333 331 328 328 329 323 325 321 315 316 319 322 323 318
328 328 327 325 325 326 327 326 325 326 326 327 327 328 328 328 331 331 332 332 332 332 333 334 334 332 334 335 333 332 329 328 330 328 324 323 323 316 322 323 323 317 318
329 326 326 326 327 327 326 325 325 326 326 327 327 329 327 331 332 334 331 332 331 332 333 334 334 332 334 334 332 330 328 331 327 326 325 322 318 323 324 323 321 320 316
328 327 327 326 327 327 326 326 325 326 326 327 328 328 330 330 329 332 334 331 331 333 333 334 333 332 332 331 331 331 330 326 323 325 325 324 326 326 324 323 319 318 318
327 328 327 327 327 327 326 326 326 327 328 326 326 325 329 330 331 332 331 330 330 330 331 329 332 332 331 329 329 325 323 325 324 324 324 326 325 324 323 320 322 322 321
328 328 327 326 326 327 327 326 327 327 328 328 329 327 325 325 326 331 331 330 331 329 329 330 330 330 329 329 325 325 326 326 323 321 319 324 324 322 320 322 322 322 322
329 328 327 327 327 327 328 327 327 328 328 328 327 325 326 326 327 331 329 331 332 331 329 329 330 329 328 326 327 324 325 323 321 321 323 325 322 320 318 318 319 319 318
328 328 328 328 329 328 327 328 328 328 328 327 326 324 324 328 331 329 331 330 330 332 332 329 329 328 326 327 324 324 325 324 324 324 323 320 315 320 317 316 316 316 315
328 328 328 328 329 329 329 329 327 328 329 327 327 327 328 329 329 331 330 328 329 329 331 328 328 327 327 327 326 325 324 324 324 321 321 321 321 317 314 316 315 314 315
328 328 328 329 329 327 327 329 328 327 329 328 329 328 328 328 329 329 329 328 329 329 329 328 328 326 327 325 326 325 326 324 322 321 320 318 317 315 315 315 314 314 313
329 328 328 328 327 328 327 328 327 328 328 327 328 328 328 328 328 327 327 330 329 329 328 328 328 328 327 327 325 325 324 323 323 319 317 316 316 316 316 315 315 313 312
330 329 328 328 328 328 326 327 327 327 327 327 327 328 329 328 328 326 328 329 329 329 328 328 328 326 326 325 325 325 324 323 321 318 317 315 314 314 314 315 316 315 315
330 330 330 328 329 326 326 326 326 326 326 327 328 330 330 329 330 330 328 328 328 328 328 327 327 326 325 325 325 324 323 322 321 320 321 321 320 319 318 317 315 312 308
330 330 330 329 328 325 325 326 326 326 327 326 328 328 328 329 328 328 328 328 328 327 327 327 326 324 324 325 324 322 321 323 323 323 320 319 316 311 308 306 306 305 305
330 330 329 329 328 327 325 325 325 325 327 327 327 327 328 328 328 328 328 328 327 327 327 326 326 325 325 326 325 323 324 324 324 322 316 312 310 309 306 306 305 305 304
331 330 330 329 326 325 324 324 325 327 327 326 326 327 327 328 327 327 327 327 327 326 326 326 325 326 325 326 326 325 324 324 324 322 315 311 310 308 305 304 304 302 299
330 328 328 327 325 325 325 325 325 326 326 326 327 327 327 329 326 327 326 327 326 326 326 326 326 327 327 326 326 324 324 321 319 319 316 313 311 307 304 300 298 295 293
329 327 327 327 326 326 326 326 326 326 326 327 326 327 328 327 327 326 324 325 325 325 324 325 327 328 327 322 318 320 321 322 320 317 314 313 312 309 307 304 297 292 292
328 329 327 327 327 326 326 326 326 326 327 326 327 327 327 326 326 326 326 326 326 324 321 322 320 324 322 319 320 325 324 325 320 315 313 313 311 311 311 305 300 298 296

GFSMA_925_thetae_024.txt.gz
Theta_e
332 332 332 331 330 329 328 327 327 328 328 329 328 329 330 329 328 331 331 327 322 324 329 335 337 340 342 340 341 340 337 338 335 335 333 331 331 330 332 335 335 334 334
332 333 332 331 331 330 329 328 328 327 327 328 329 330 330 328 329 331 331 327 320 323 327 328 335 340 341 340 341 338 337 335 334 331 328 327 326 326 330 335 334 333 330
333 333 332 331 331 330 330 329 327 327 327 327 329 330 330 330 330 330 330 325 325 328 327 325 332 338 341 340 339 338 336 334 333 330 328 329 327 328 334 334 331 329 325
333 333 333 332 331 330 330 328 327 327 327 327 329 329 329 330 330 329 325 324 326 328 329 325 332 335 341 340 338 336 334 334 330 329 328 327 327 333 333 330 328 326 326
333 333 332 330 332 329 329 329 328 327 327 328 329 329 329 329 329 325 323 326 331 331 329 334 335 336 340 341 338 335 334 332 330 329 327 328 333 333 329 327 326 325 325
334 333 332 333 327 327 328 328 328 327 327 328 328 329 328 328 327 325 326 330 333 333 333 336 339 338 338 341 339 336 334 332 330 327 329 332 332 327 325 325 326 325 324
333 332 332 328 327 328 326 327 327 328 327 328 329 329 329 329 327 326 329 333 334 334 336 337 339 337 338 334 339 337 334 331 330 329 330 331 326 325 324 325 324 321 321
332 332 331 330 328 324 326 326 328 327 327 328 328 328 332 329 329 331 331 333 333 334 336 338 335 326 325 324 335 335 334 333 331 329 330 325 325 324 325 321 317 322 322
332 332 331 328 327 326 327 328 328 327 328 329 329 329 332 329 329 331 332 333 334 334 336 338 336 333 333 330 329 325 334 332 330 329 325 325 323 324 319 319 323 321 318
331 331 329 329 328 328 329 329 328 328 328 329 330 329 329 328 328 336 333 333 334 335 337 337 336 335 335 331 327 330 332 330 328 328 325 322 324 323 320 322 318 316 319
331 329 330 329 328 329 329 328 327 328 329 330 328 331 329 327 330 334 336 333 333 333 334 335 335 334 334 335 335 334 331 330 326 325 324 325 323 326 320 319 321 321 321
331 330 329 329 329 329 328 328 328 328 330 331 330 329 331 329 329 332 337 334 333 332 333 334 333 333 334 333 333 331 330 327 326 324 323 324 325 322 323 324 323 322 322
331 330 330 329 329 329 329 329 329 329 330 331 330 329 330 329 331 332 332 333 332 330 330 331 331 331 331 331 331 328 324 323 324 323 324 324 323 323 323 323 323 323 323
330 330 330 330 330 330 329 329 330 330 330 331 330 328 329 330 330 333 332 332 332 331 330 330 329 330 329 326 323 322 324 323 324 324 325 325 324 322 320 320 320 322 321
329 330 330 330 330 330 330 331 331 330 330 331 331 330 329 330 332 334 332 331 332 333 332 330 329 327 326 324 325 325 324 324 324 321 326 325 322 320 319 317 320 320 318
329 330 330 330 330 331 331 331 331 331 331 330 324 325 331 333 334 332 332 331 330 331 333 329 328 327 327 326 324 324 323 323 322 323 321 323 321 319 318 318 317 316 315
329 330 330 331 331 331 331 332 331 331 331 331 331 332 332 332 331 332 331 329 327 329 330 328 328 326 325 324 325 324 324 323 325 323 319 319 315 319 315 316 316 315 314
329 329 329 330 330 330 331 331 330 331 331 331 331 331 332 331 331 330 331 331 330 329 328 328 327 326 326 325 325 325 324 322 320 321 320 319 320 318 317 316 315 314 313
329 329 329 330 329 330 331 330 330 329 330 330 331 330 332 332 328 327 328 332 330 328 328 328 327 326 326 325 325 324 323 321 320 316 318 318 317 316 316 314 314 314 313
330 329 329 329 330 329 329 329 329 330 330 331 330 331 331 330 326 327 329 330 329 329 328 327 326 326 325 324 324 323 322 317 320 319 319 316 317 317 317 315 314 311 307
331 330 331 330 329 329 328 329 329 329 329 331 332 331 331 331 330 328 329 331 329 328 328 326 326 325 324 324 323 323 323 321 321 320 318 315 313 309 307 306 305 305 305
331 331 331 330 329 328 326 327 328 330 330 331 331 331 328 328 328 329 329 328 328 327 327 326 325 325 325 324 323 323 324 325 325 323 321 316 314 312 308 306 305 304 302
332 331 331 330 329 326 324 325 327 330 331 331 330 328 327 328 328 328 328 327 327 327 326 326 325 326 324 322 319 324 324 324 324 321 317 314 312 307 303 302 301 299 295
332 331 330 330 328 325 324 325 327 329 330 331 329 331 330 330 327 328 326 326 326 326 326 326 326 325 326 324 324 325 326 327 323 319 318 316 313 309 304 299 296 293 292
327 328 329 328 327 324 325 325 328 330 330 331 332 330 330 329 326 327 327 325 325 325 325 326 326 325 326 327 326 326 325 324 323 323 320 317 314 310 307 302 294 292 291
332 330 327 326 326 326 326 326 328 327 329 328 330 329 328 325 326 325 326 327 322 323 326 326 326 327 327 327 323 323 324 324 325 323 319 318 316 313 313 308 304 300 298

GFSMA_925_thetae_030.txt.gz
Theta_e
338 335 335 335 335 334 332 333 332 331 330 328 327 328 331 329 331 331 331 332 331 330 330 328 325 331 338 338 339 342 342 340 337 336 333 332 333 329 330 332 333 333 334
335 336 336 335 335 333 333 332 332 331 329 330 329 329 328 329 331 331 328 332 330 330 329 326 331 333 337 339 339 340 342 339 335 336 335 331 333 331 332 332 334 334 334
334 337 336 336 334 334 332 332 332 332 330 328 329 329 327 328 329 332 330 331 330 329 327 319 322 333 335 340 341 341 341 340 335 336 334 333 331 331 332 334 334 333 332
336 338 337 335 334 334 333 332 332 332 332 330 329 329 330 330 329 329 330 330 331 331 327 317 317 324 325 340 341 341 341 339 337 334 333 332 331 330 331 329 333 331 326
337 337 336 335 335 334 333 332 332 331 330 331 329 327 329 331 331 330 329 330 329 329 331 331 323 325 323 337 341 340 340 339 335 334 332 332 331 329 328 331 331 320 318
336 336 335 336 336 333 332 332 331 327 328 329 330 330 330 330 331 331 330 330 329 327 329 333 330 324 329 335 340 340 340 338 336 333 332 329 326 327 332 332 319 323 313
336 335 335 335 334 333 333 331 330 330 328 329 330 329 328 329 330 331 330 328 327 328 330 332 331 333 332 333 338 339 338 335 334 333 331 327 326 332 332 324 321 321 323
334 334 335 334 334 333 331 331 330 328 327 327 327 328 331 330 330 330 330 328 330 331 331 332 333 335 338 335 339 338 338 336 334 332 329 327 329 332 327 326 325 322 313
335 335 334 334 333 331 330 330 329 329 331 329 327 329 331 332 329 328 329 330 333 331 333 333 334 338 337 338 339 339 339 338 335 332 328 328 331 327 325 325 323 312 315
334 332 333 333 331 331 331 329 329 329 329 329 329 328 328 328 330 330 329 330 330 330 332 331 335 335 334 335 335 337 338 336 334 331 329 332 328 327 325 324 318 321 316
335 334 333 332 331 330 330 329 330 328 329 329 330 329 328 329 327 326 330 332 332 329 332 334 335 333 330 332 329 327 329 334 333 331 331 327 326 326 323 318 321 320 322
335 334 333 331 331 330 331 331 330 329 329 329 329 329 331 329 326 326 330 331 330 330 329 331 334 336 333 325 326 328 330 329 332 332 326 326 325 320 319 322 323 323 323
335 334 332 330 332 332 331 330 328 329 329 328 328 329 330 330 330 329 329 330 331 331 333 334 335 335 331 329 329 330 330 331 327 324 325 322 322 322 322 323 324 323 323
334 330 330 331 333 332 330 329 329 329 329 331 329 329 331 330 331 328 328 331 331 331 330 330 333 333 332 332 330 331 327 324 320 318 321 323 323 322 321 323 322 320 322
331 331 331 332 332 332 331 330 330 331 330 327 330 330 330 330 330 330 327 326 329 332 331 329 328 331 332 332 330 327 323 321 321 323 323 321 321 321 323 322 320 321 320
332 332 333 333 333 332 332 331 331 332 328 324 328 332 331 330 329 329 330 329 330 330 331 328 327 329 328 326 325 322 321 324 325 324 320 319 321 322 321 317 319 319 319
331 331 332 333 332 333 332 330 330 328 328 328 324 325 330 329 330 331 330 330 331 330 329 327 326 328 326 323 323 323 324 324 323 321 320 321 316 315 317 316 315 314 316
330 329 331 331 331 332 333 332 332 332 332 328 326 328 326 330 330 329 330 329 329 328 327 326 324 324 324 324 324 324 325 324 324 320 316 316 319 320 319 313 313 315 315
329 330 330 330 331 332 331 331 332 332 330 330 330 330 329 331 330 328 327 328 329 328 327 326 325 323 324 324 323 323 322 322 321 320 322 320 318 315 314 317 315 315 313
329 330 330 331 331 330 330 331 331 331 332 331 331 332 329 328 327 328 330 329 328 326 325 325 324 323 323 322 321 321 320 319 320 319 315 318 319 317 317 316 314 313 312
329 331 331 331 330 329 330 331 330 332 331 332 332 331 327 327 328 329 329 328 327 326 325 325 324 323 322 321 319 318 319 318 317 316 318 317 316 315 314 313 310 306 305
330 331 331 330 330 328 328 329 331 332 331 332 331 329 327 328 329 329 328 327 326 326 325 325 324 323 321 318 317 317 316 317 315 315 313 311 311 307 306 305 305 305 302
330 331 331 330 329 327 328 330 332 332 332 331 330 330 329 329 330 329 328 326 326 325 325 324 324 322 319 318 320 320 319 319 317 314 313 311 309 308 307 305 304 301 297
330 330 331 330 327 325 327 329 332 331 331 331 330 330 328 329 329 328 327 326 326 325 325 324 324 322 322 320 320 318 322 322 317 317 315 312 309 305 304 303 300 295 293
332 332 331 330 327 325 327 329 332 331 331 331 330 329 329 328 327 327 326 325 325 325 325 324 324 324 322 320 320 321 325 322 321 320 316 313 308 306 304 301 297 293 291
331 331 330 330 328 325 326 329 331 331 330 329 330 328 328 326 326 326 325 325 324 325 325 325 324 324 321 326 325 326 325 322 320 320 318 316 310 308 306 304 300 292 291

GFSMA_925_thetae_033.txt.gz
Theta_e
339 342 337 332 334 335 334 334 333 332 331 330 330 328 329 331 330 331 330 331 333 332 332 332 329 326 325 336 339 341 342 340 339 334 335 332 334 333 331 331 330 329 332
341 340 335 335 336 334 333 332 333 332 331 329 329 328 327 327 329 330 331 330 332 331 330 330 330 333 333 336 338 339 341 341 339 335 334 333 332 331 330 330 330 332 333
342 338 335 336 336 335 334 332 332 332 332 330 329 329 329 328 327 330 330 330 331 330 329 328 328 333 334 338 337 339 341 342 339 336 333 332 331 330 331 332 333 334 333
339 333 335 336 335 334 334 333 332 331 331 331 330 329 328 329 329 329 329 330 330 330 329 327 320 327 332 337 339 343 341 341 338 336 334 332 333 331 331 333 334 332 327
333 334 336 336 336 335 334 333 332 331 331 330 330 329 328 329 329 329 329 330 330 331 331 330 324 319 329 329 339 343 341 340 337 336 335 332 332 331 333 334 332 326 319
333 335 335 335 335 334 334 332 331 330 330 329 329 328 328 329 329 331 329 328 328 329 330 328 330 320 325 328 338 342 342 339 337 337 334 333 331 331 331 329 325 321 322
335 336 335 335 336 335 333 332 331 330 328 327 329 328 328 328 329 330 331 330 327 328 326 327 331 330 324 328 336 340 342 339 338 336 333 332 331 330 330 328 318 313 313
336 335 333 333 334 333 333 332 330 329 328 327 327 327 327 327 327 328 329 330 330 329 327 330 331 327 324 329 334 337 342 338 337 334 332 331 328 329 331 320 319 323 315
335 334 333 333 332 332 332 331 330 329 328 327 326 324 325 326 324 327 328 329 330 328 330 332 332 332 330 334 333 336 339 338 336 333 332 327 327 331 324 324 322 316 316
335 332 332 331 332 330 330 330 329 329 328 328 328 327 326 327 324 325 328 329 329 328 329 331 332 331 333 334 334 337 339 337 335 333 330 327 331 329 324 321 317 313 317
334 333 333 332 331 330 330 329 329 328 329 328 327 328 327 326 326 323 324 327 329 328 330 331 330 331 332 335 337 336 338 336 335 333 330 329 330 327 326 323 316 316 322
334 334 333 331 331 330 329 330 330 329 329 328 328 329 329 325 323 323 321 324 325 329 329 330 332 331 330 330 331 334 335 332 333 332 329 329 324 325 322 323 320 323 322
333 334 332 330 330 330 330 330 330 328 329 329 329 329 328 328 328 323 325 324 326 330 331 329 332 331 328 329 327 329 331 329 326 331 328 326 324 319 321 320 321 323 323
334 332 330 330 331 332 331 329 329 328 329 328 329 329 328 328 328 328 327 327 329 330 330 330 333 330 328 333 331 329 326 325 330 328 324 320 321 322 320 321 321 322 320
329 330 330 331 332 332 330 329 329 330 330 328 329 328 328 328 328 325 328 328 327 330 330 329 329 329 330 329 329 329 328 330 326 318 315 323 321 316 319 320 321 323 321
332 330 332 333 332 331 331 331 330 329 328 326 328 328 327 328 329 329 325 327 328 326 328 328 328 331 329 327 327 326 323 319 317 322 323 319 318 322 321 322 322 322 320
331 332 332 332 331 332 331 329 330 329 326 326 324 326 328 329 330 328 328 324 329 328 327 327 328 328 327 324 323 320 320 322 324 320 319 320 321 320 321 319 318 314 310
329 329 331 331 331 331 331 330 328 327 329 327 325 327 326 329 330 330 329 330 328 327 326 326 326 323 323 322 322 323 324 322 320 320 321 319 315 313 313 313 311 312 315
329 330 331 330 331 331 331 331 331 330 329 328 328 328 328 329 329 329 329 328 327 326 326 326 325 323 324 324 324 323 322 322 322 320 315 313 316 317 319 315 313 315 314
329 330 331 331 331 329 329 330 330 331 332 329 328 328 328 329 327 327 328 327 326 326 325 324 324 324 323 323 322 321 319 319 318 316 316 319 320 317 315 316 315 314 312
330 331 331 330 329 328 329 329 330 331 331 331 330 328 327 327 328 326 326 327 326 325 324 323 323 322 322 322 320 319 317 318 319 319 317 318 316 317 316 314 312 311 308
331 331 329 329 329 328 328 329 331 331 332 330 327 327 328 328 328 328 327 327 325 324 323 323 322 322 321 319 319 318 317 316 313 316 317 312 314 312 311 310 307 305 304
331 330 329 329 328 327 329 331 331 331 331 330 328 328 329 329 329 328 327 325 325 323 323 322 322 320 318 319 318 317 316 315 315 313 313 306 307 307 305 305 304 303 299
330 331 330 328 326 327 328 331 331 331 330 330 329 328 328 328 328 326 325 325 325 323 323 322 323 321 321 319 319 318 316 316 314 311 311 307 306 306 304 304 302 299 294
330 331 329 326 325 327 329 331 331 330 330 330 328 329 328 327 327 326 325 324 324 324 323 323 323 323 322 320 318 318 318 315 315 313 314 309 306 305 303 302 301 295 293
331 331 329 325 325 327 329 331 331 331 330 330 329 327 326 327 326 326 325 324 323 324 323 323 322 322 320 320 319 323 317 317 318 316 315 312 307 306 303 302 299 295 292

GFSMA_925_thetae_036.txt.gz
Theta_e
327 325 333 338 338 336 334 334 332 332 332 331 330 330 330 330 331 331 332 332 331 330 331 331 331 330 328 326 330 341 341 341 335 336 333 332 333 334 335 334 333 333 333
328 328 338 340 334 332 334 333 333 333 333 331 330 329 328 328 329 330 329 329 331 330 331 331 331 331 334 326 331 340 340 341 339 337 333 333 333 334 333 332 331 332 332
331 332 339 338 334 335 334 333 333 332 332 331 330 329 329 329 328 328 329 330 329 331 332 331 330 329 335 335 334 338 340 341 340 338 334 334 332 333 331 331 330 331 333
334 339 340 336 335 336 334 333 332 332 331 331 331 330 328 328 328 328 327 329 330 331 330 329 328 328 332 334 337 341 339 341 341 338 334 333 332 331 330 331 332 333 332
339 341 339 334 335 335 334 334 333 332 331 331 329 329 330 328 329 329 329 329 330 330 330 329 328 325 330 334 337 340 339 340 341 338 335 333 332 332 331 333 333 331 327
342 339 333 334 335 335 335 334 333 332 331 330 329 329 329 327 327 328 329 329 329 329 330 330 330 329 320 331 336 338 339 340 341 339 336 333 332 332 332 333 329 326 324
332 332 334 334 334 335 334 332 332 331 330 330 327 328 328 328 328 328 329 330 329 328 329 329 328 331 324 322 327 337 338 340 340 337 336 334 333 333 334 330 323 318 317
333 335 335 336 336 335 332 332 331 330 329 328 327 327 326 326 327 327 328 330 330 329 329 328 326 329 330 323 324 335 337 339 339 337 335 333 332 332 330 321 317 314 319
335 335 335 334 333 333 331 331 330 330 328 327 327 322 323 327 324 326 327 328 329 329 329 328 328 331 329 325 323 332 337 338 338 337 336 332 331 331 325 317 311 317 314
336 335 334 332 331 331 331 330 329 329 328 327 326 325 325 326 323 322 326 328 328 329 329 330 331 331 331 330 327 331 336 336 337 337 334 331 330 330 320 314 323 318 322
334 334 332 332 331 330 330 330 330 329 328 328 327 327 327 325 326 321 323 325 328 328 328 329 330 331 329 330 332 332 335 336 337 335 333 331 329 328 323 325 319 320 323
334 334 333 332 330 330 329 329 328 328 328 328 328 327 327 323 321 322 320 322 323 327 329 330 329 329 330 332 333 332 335 335 335 333 332 328 330 326 325 321 321 323 322
333 333 333 332 330 329 329 329 330 329 328 328 328 328 328 328 325 322 322 323 324 328 329 330 329 329 330 331 333 334 333 335 334 332 329 330 326 322 322 323 323 322 322
332 333 332 330 329 331 331 329 329 328 329 329 328 328 328 328 327 327 323 325 325 326 328 330 330 329 329 328 331 334 333 332 331 332 330 327 325 321 322 317 320 322 322
332 330 329 330 330 331 331 328 329 328 328 329 328 328 328 328 324 324 327 326 326 329 327 328 330 329 328 328 328 330 326 324 326 330 325 316 319 322 319 322 322 319 318
329 330 330 331 332 331 331 330 329 329 328 326 327 328 328 328 327 325 327 326 327 327 326 327 328 329 328 328 329 327 326 328 328 322 318 314 320 321 317 319 320 321 319
331 330 332 332 331 331 331 331 330 329 327 324 325 326 328 329 327 327 327 327 327 327 327 327 328 328 327 326 326 325 323 322 317 315 318 319 317 318 322 322 322 321 316
330 330 331 331 331 331 330 328 329 327 327 326 324 327 327 328 329 328 327 327 326 326 327 327 325 325 324 322 320 319 318 318 322 318 318 322 322 321 321 320 317 311 311
329 330 331 331 331 330 331 331 330 329 329 326 327 326 329 329 328 328 325 327 326 326 326 325 323 324 322 321 322 322 321 321 322 322 319 318 317 316 314 312 313 312 313
329 330 330 330 330 329 330 330 330 330 329 328 327 327 328 329 328 327 327 326 326 326 325 323 323 323 323 323 322 320 319 318 319 320 317 313 315 317 316 314 313 314 314
329 331 330 329 328 328 328 328 330 331 330 328 329 328 328 328 328 328 327 326 326 325 324 324 324 323 322 321 320 319 316 315 315 314 317 319 319 317 315 315 315 313 311
330 330 329 328 328 327 327 328 331 332 329 329 327 327 327 327 326 326 326 326 325 325 324 323 323 322 322 320 318 318 316 315 313 316 316 315 316 316 315 313 311 309 305
330 329 328 329 327 327 329 331 331 331 329 327 327 328 328 328 327 326 326 326 325 324 323 322 322 321 320 319 318 317 317 316 315 314 317 308 310 313 310 308 305 304 302
330 328 328 327 327 328 330 331 331 330 328 328 328 328 328 328 328 326 324 323 323 323 322 322 321 321 322 319 318 318 316 314 314 313 314 306 305 305 305 304 303 302 298
330 329 328 326 327 328 331 330 330 330 329 328 328 326 327 327 326 325 323 323 322 322 322 321 321 322 320 319 319 316 315 312 311 310 311 309 304 304 303 303 302 300 295
330 329 326 324 327 329 331 331 330 330 328 327 327 327 327 326 325 325 323 323 322 321 321 321 320 320 320 319 319 318 316 313 312 312 313 310 306 307 304 303 302 300 294

GFSMA_925_thetae_042.txt.gz
Theta_e
328 323 324 324 324 325 327 333 335 335 335 333 330 330 330 329 329 330 329 329 330 330 330 331 335 332 331 329 329 328 333 337 339 337 335 333 334 335 335 332 333 334 333
329 324 321 324 324 325 325 333 336 336 335 333 331 331 331 329 329 328 328 328 329 329 329 330 332 334 333 330 329 327 328 337 338 338 336 334 334 334 332 331 332 333 332
330 327 319 321 324 322 323 334 337 335 334 333 331 332 331 330 329 328 328 327 327 328 328 329 328 330 331 330 329 328 326 335 338 339 337 335 334 332 331 331 333 333 332
331 330 325 323 322 323 326 336 333 333 333 332 330 331 330 330 330 329 328 327 327 328 330 328 329 329 329 330 330 333 327 334 336 340 339 336 335 332 332 334 334 333 334
333 332 330 326 324 326 333 335 332 333 333 330 330 331 330 330 330 329 328 327 327 327 329 329 329 330 329 329 332 331 333 334 336 337 336 336 335 332 333 333 333 334 332
336 334 333 330 330 333 336 334 334 333 332 332 330 330 330 330 328 329 328 328 328 327 328 329 330 329 327 327 328 335 336 335 336 335 337 336 336 333 332 332 332 332 331
336 334 334 333 333 337 334 333 334 333 331 330 327 328 328 328 328 328 327 327 328 327 328 328 329 329 329 328 324 332 335 337 337 336 336 336 335 333 331 332 334 328 322
337 338 337 336 338 335 333 334 333 330 328 329 326 323 327 325 326 326 327 327 327 328 328 328 329 328 328 329 322 327 331 337 337 338 338 336 334 332 333 333 327 321 319
340 339 339 339 336 333 334 333 331 332 326 327 326 324 325 327 324 324 326 327 327 328 328 328 328 328 328 328 326 322 326 335 336 338 339 336 334 333 332 330 322 321 322
340 340 338 333 332 333 334 332 331 330 328 326 326 324 323 322 326 326 324 325 326 328 328 328 328 328 327 328 328 324 322 330 335 337 338 336 333 333 330 318 318 321 324
340 335 331 332 334 334 332 331 330 329 328 326 325 325 324 323 323 324 325 326 326 327 327 328 328 327 328 329 328 326 322 329 333 335 337 335 333 332 327 323 318 324 325
333 334 333 334 333 331 330 329 328 328 328 327 326 325 325 324 323 323 323 323 325 325 328 328 329 329 329 329 330 328 323 327 333 334 336 333 332 329 324 323 324 325 325
334 334 333 332 331 330 329 328 328 328 327 328 327 327 326 325 324 323 321 322 326 325 327 326 328 328 328 328 327 329 329 330 334 334 335 333 330 325 321 323 324 325 324
334 333 333 332 331 329 328 328 328 328 328 328 327 327 327 326 326 324 323 324 327 327 326 327 326 328 328 330 331 330 332 332 334 334 333 332 327 324 322 322 324 321 321
333 332 332 331 330 328 329 329 328 328 328 327 327 327 327 327 326 326 323 325 326 328 328 327 327 326 327 330 331 332 332 334 334 333 332 331 326 322 318 321 319 320 319
331 331 331 329 328 329 330 329 328 328 328 327 328 328 327 327 327 326 327 325 325 324 328 327 327 325 326 327 332 331 332 333 332 333 331 327 323 318 322 319 315 317 317
328 328 328 329 329 330 330 330 329 329 328 328 326 327 327 327 327 327 326 325 325 325 326 327 327 325 325 327 329 332 332 332 332 330 328 323 319 321 318 317 321 319 318
329 329 330 330 330 330 330 330 330 329 328 326 325 325 326 327 326 326 325 324 325 325 327 326 325 323 323 326 325 326 324 324 328 326 321 322 319 319 320 312 318 316 317
329 330 330 330 330 329 329 329 328 328 328 326 325 325 326 327 326 325 325 325 325 326 326 325 323 321 320 324 323 322 323 322 321 320 320 318 320 320 315 321 318 317 314
329 329 330 330 330 329 329 329 329 329 328 327 326 327 326 326 327 326 325 325 325 325 325 323 321 320 319 319 320 318 317 318 317 317 318 318 317 317 322 320 316 312 313
328 329 330 330 328 328 328 328 329 329 328 327 327 327 328 326 326 326 325 325 325 324 323 322 322 321 320 319 318 316 315 315 316 316 317 318 320 320 317 313 313 313 313
328 329 329 328 327 326 327 328 330 330 329 327 328 328 327 327 326 326 325 325 324 323 323 322 322 321 320 318 317 316 315 315 312 316 319 316 316 314 313 314 314 313 311
329 329 328 327 326 326 327 329 330 329 328 328 327 328 327 326 326 325 325 324 323 324 323 322 321 321 319 317 316 316 317 315 313 315 316 310 312 314 313 313 312 309 308
329 328 327 327 326 328 330 330 330 327 327 326 326 327 327 326 326 325 325 324 323 323 323 322 322 320 319 317 317 317 316 315 314 314 315 309 309 309 311 309 308 306 304
328 327 327 326 327 330 330 330 328 327 326 326 326 327 326 326 326 325 324 323 323 323 323 322 321 320 319 318 318 318 316 314 312 311 312 312 308 308 307 306 305 305 302
328 327 326 325 327 330 329 329 328 325 325 326 326 326 327 326 324 325 323 323 321 321 322 321 320 319 319 319 320 319 318 314 313 313 312 312 308 308 306 306 306 304 302

GFSMA_925_thetae_048.txt.gz
Theta_e
335 336 334 332 332 332 333 334 335 337 338 338 338 337 335 334 334 333 332 332 329 329 330 334 334 335 334 330 330 330 329 328 338 337 335 332 335 334 335 334 330 329 330
336 336 335 334 331 332 331 335 333 336 337 337 338 338 336 334 334 334 333 334 331 329 329 329 334 335 337 336 331 330 329 327 337 338 337 334 334 335 334 336 333 330 331
337 336 336 335 332 331 333 332 333 335 335 338 338 338 337 335 334 334 334 333 333 331 328 329 328 332 336 337 336 330 329 328 331 336 337 334 334 334 334 334 334 332 332
341 338 336 335 334 332 332 332 331 331 331 337 339 337 337 335 333 335 335 334 333 332 331 327 328 328 330 336 334 331 329 328 327 334 337 335 334 333 334 334 333 332 333
342 339 338 337 336 334 332 331 331 330 330 339 338 337 337 335 334 334 334 333 333 333 332 330 329 329 328 332 335 335 332 328 326 333 337 337 334 334 334 332 331 332 333
341 341 340 339 339 335 331 331 329 330 336 338 337 336 335 336 336 335 333 333 331 333 332 331 333 329 328 329 332 335 335 330 327 330 336 337 336 335 333 332 333 334 333
342 342 341 340 339 335 334 332 332 334 338 337 337 336 335 334 334 333 333 333 332 333 332 333 332 332 331 329 330 330 334 334 328 331 335 336 336 334 332 333 334 333 329
344 342 342 341 339 337 336 336 335 338 336 337 335 333 335 334 333 333 333 333 333 333 332 332 332 333 333 331 331 328 329 333 329 334 335 336 335 334 333 333 333 331 327
341 342 343 341 340 338 338 338 339 338 336 335 334 333 335 336 336 332 333 332 332 331 329 332 333 334 335 334 334 329 327 330 332 337 334 334 334 333 332 334 332 329 327
343 343 343 340 339 339 339 339 338 337 336 334 331 332 332 331 333 335 332 332 332 330 327 331 333 333 334 333 334 331 325 330 333 337 334 334 335 333 333 333 330 327 323
344 344 342 341 342 340 338 338 338 337 335 334 332 332 331 331 331 334 334 332 331 329 329 333 329 333 333 333 335 334 327 327 332 334 335 334 335 334 333 329 330 326 323
344 343 343 342 341 339 339 338 337 335 334 332 331 331 330 330 330 331 333 333 330 330 331 331 331 330 333 332 331 332 325 323 330 333 334 335 334 332 331 328 328 325 328
344 344 341 340 339 339 338 337 336 334 333 332 332 330 329 329 330 330 330 332 331 329 330 331 331 331 332 332 333 331 325 323 330 333 335 334 332 330 329 327 326 328 327
342 343 340 340 339 338 337 336 333 332 332 332 332 332 331 329 330 330 330 332 332 330 331 332 330 331 333 334 333 329 329 324 331 333 334 334 331 331 326 325 327 327 326
339 341 340 339 338 337 336 334 331 332 332 332 332 332 331 330 330 330 330 331 331 331 332 331 331 332 332 332 332 332 333 326 332 333 333 331 330 326 319 326 327 325 322
338 339 339 338 337 335 333 332 331 331 332 332 331 331 332 332 331 331 330 329 327 328 334 331 332 332 332 331 332 333 334 330 334 333 332 331 329 321 324 327 325 322 321
339 337 336 335 334 333 332 332 332 332 332 332 331 328 331 331 332 331 331 330 328 328 330 331 329 327 328 329 330 332 333 335 334 334 331 328 326 322 326 325 322 320 319
336 334 333 332 332 331 333 333 333 331 332 332 328 328 329 331 331 332 330 328 331 331 328 329 326 325 326 328 329 331 333 333 332 331 329 327 322 324 325 319 319 316 314
333 332 332 332 332 332 333 333 332 332 332 331 327 325 326 328 331 331 327 331 331 331 329 327 323 322 323 324 325 325 327 325 324 327 325 323 325 323 318 313 314 318 319
332 332 332 332 333 333 332 332 332 332 330 330 327 325 324 324 330 330 331 331 330 330 329 326 322 321 321 321 321 319 319 320 320 321 323 322 321 319 317 316 315 319 317
332 332 333 333 333 333 331 332 332 332 332 327 327 326 325 326 329 328 330 331 331 329 327 323 322 321 320 320 318 317 317 317 317 320 319 318 318 319 314 313 319 318 316
333 333 333 333 333 329 327 328 330 333 331 327 326 327 327 327 328 327 329 330 330 328 327 324 322 321 320 318 317 316 316 317 314 315 315 314 314 317 318 319 317 313 313
333 333 333 333 332 331 326 328 330 333 332 328 327 327 326 327 328 328 328 330 328 327 327 327 323 322 319 319 319 318 319 318 315 314 314 312 315 318 318 315 312 313 313
332 332 333 332 332 329 329 330 330 332 331 330 327 327 326 326 326 328 329 329 328 328 328 327 323 322 320 320 321 320 319 317 315 314 315 313 315 315 314 314 313 313 312
333 333 332 332 332 329 330 329 331 331 331 330 327 326 325 325 324 326 328 328 328 327 327 327 325 323 321 319 319 319 315 316 316 316 318 316 316 316 315 315 313 312 311
333 332 331 331 329 329 328 328 329 330 330 327 326 326 326 326 324 325 327 326 325 324 324 323 322 321 321 320 319 319 320 319 318 319 319 320 318 316 316 315 313 311 310